Weather History for St. Augustine, FL

Change the Weather History Date:

Monday, July 15, 2013

  Actual Average Record
Temperature  
Mean Temperature 78 °F -  
Max Temperature 84 °F 86 °F 101 °F (1981)
Min Temperature 73 °F 71 °F 67 °F (1974)
Cooling Degree Days 12    
Growing Degree Days 28 (Base 50)    
Moisture  
Dew Point 74 °F    
Average Humidity 87    
Maximum Humidity 94    
Minimum Humidity 79    
Precipitation  
Precipitation 0.26 in - - ()
Sea Level Pressure  
Sea Level Pressure 30.14 in    
Wind  
Wind Speed 8 mph (ENE)    
Max Wind Speed 21 mph    
Max Gust Speed 26 mph    
Visibility 8 miles    
Events Rain , Thunderstorm    
Averages and records for this station are not official NWS values.
T = Trace of Precipitation, MM = Missing Value Source: NWS Daily Summary

Daily Weather History Graph

Daily Weather History Graph

Search for Another Location

Airport:

Trip Planner

Search our weather history database for the weather conditions in past years. The results will help you decide how hot, cold, wet, or windy it might be!

Date:

Astronomy

Jul. 15, 2013 Rise Set
Actual Time 6:34 AM EDT 8:27 PM EDT
Civil Twilight 6:07 AM EDT 8:54 PM EDT
Nautical Twilight 5:35 AM EDT 9:26 PM EDT
Astronomical Twilight 5:01 AM EDT 10:01 PM EDT
Moon 1:16 PM EDT (7/15) 12:12 AM EDT (7/15)
Length of Visible Light 14h 46m
Length of Day
13h 53m
Waxing Crescent, 45% of the Moon is Illuminated
Jul 15
Waxing Crescent
Jul 15
First Quarter
Jul 22
Full
Jul 29
Last Quarter
Aug 6
New

Hourly Weather History & Observations

Time (EDT) Temp. Heat Index Dew Point Humidity Pressure Visibility Wind Dir Wind Speed Gust Speed Precip Events Conditions
12:58 AM 77.0 °F - 73.0 °F 88% 30.14 in 10.0 mi East 8.1 mph - N/A   Unknown
1:58 AM 77.0 °F - 73.0 °F 88% 30.14 in 10.0 mi East 5.8 mph - N/A   Unknown
2:58 AM 75.9 °F - 73.0 °F 91% 30.14 in 10.0 mi East 5.8 mph - N/A   Unknown
3:58 AM 75.0 °F - 73.0 °F 94% 30.12 in 10.0 mi Calm Calm - N/A   Unknown
4:58 AM 75.0 °F - 72.0 °F 90% 30.12 in 10.0 mi Calm Calm - N/A   Unknown
5:58 AM 75.0 °F - 73.0 °F 94% 30.13 in 10.0 mi NNW 4.6 mph - N/A   Unknown
6:58 AM 73.9 °F - 72.0 °F 93% 30.13 in 10.0 mi Calm Calm - N/A   Scattered Clouds
7:58 AM 75.0 °F - 73.0 °F 94% 30.15 in 10.0 mi NW 3.5 mph - N/A   Scattered Clouds
8:02 AM 75.2 °F - 73.4 °F 94% 30.14 in 10.0 mi NW 4.6 mph - N/A   Mostly Cloudy
8:37 AM 75.2 °F - 73.4 °F 94% 30.16 in 3.0 mi North 8.1 mph - 0.01 in Rain Light Rain
8:58 AM 75.0 °F - 73.0 °F 94% 30.16 in 3.0 mi North 6.9 mph - 0.02 in   Mostly Cloudy
9:02 AM 75.2 °F - 73.4 °F 94% 30.16 in 9.0 mi Calm Calm - N/A   Unknown
9:58 AM 79.0 °F - 75.0 °F 88% 30.16 in 7.0 mi North 5.8 mph - N/A   Scattered Clouds
10:58 AM 82.0 °F 88.6 °F 75.0 °F 79% 30.17 in 10.0 mi NE 10.4 mph - N/A   Scattered Clouds
11:58 AM 81.0 °F 86.2 °F 73.9 °F 79% 30.17 in 10.0 mi NE 10.4 mph - N/A   Unknown
12:58 PM 81.0 °F 86.7 °F 75.0 °F 82% 30.16 in 5.0 mi ENE 10.4 mph - 0.00 in Rain Light Rain
1:02 PM 82.4 °F 89.5 °F 75.2 °F 79% 30.16 in 10.0 mi ENE 11.5 mph - 0.00 in Rain Light Rain
1:07 PM 82.4 °F 89.5 °F 75.2 °F 79% 30.16 in 10.0 mi ENE 10.4 mph - 0.00 in   Mostly Cloudy
1:24 PM 82.4 °F 89.5 °F 75.2 °F 79% 30.15 in 9.0 mi NE 13.8 mph - 0.00 in Thunderstorm Thunderstorm
1:33 PM 80.6 °F 86.2 °F 75.2 °F 84% 30.16 in 1.0 mi East 19.6 mph 24.2 mph 0.09 in Rain , Thunderstorm Heavy Thunderstorms and Rain
1:43 PM 77.0 °F - 73.4 °F 89% 30.16 in 1.0 mi ENE 10.4 mph - 0.14 in Rain Light Rain
1:53 PM 77.0 °F - 73.4 °F 89% 30.15 in 4.0 mi ENE 8.1 mph - 0.14 in Rain Light Rain
1:58 PM 78.1 °F - 73.9 °F 87% 30.15 in 4.0 mi ENE 6.9 mph - 0.14 in   Mostly Cloudy
2:02 PM 78.8 °F - 73.4 °F 83% 30.15 in 10.0 mi ENE 6.9 mph - N/A   Unknown
2:43 PM 80.6 °F 86.2 °F 75.2 °F 84% 30.15 in 9.0 mi East 9.2 mph - N/A Thunderstorm Mostly Cloudy
2:58 PM 82.9 °F 90.8 °F 75.9 °F 79% 30.15 in 10.0 mi East 12.7 mph - N/A   Mostly Cloudy
3:02 PM 82.4 °F 89.5 °F 75.2 °F 79% 30.15 in 6.0 mi ESE 20.7 mph 26.5 mph 0.02 in   Haze
3:07 PM 78.8 °F - 73.4 °F 83% 30.14 in 1.2 mi East 12.7 mph 26.5 mph 0.06 in Rain Rain
3:18 PM 78.8 °F - 75.2 °F 89% 30.14 in 5.0 mi East 10.4 mph - 0.06 in Rain Light Rain
3:58 PM 79.0 °F - 75.9 °F 90% 30.14 in 5.0 mi ESE 8.1 mph - 0.06 in Rain Light Rain
4:02 PM 78.8 °F - 75.2 °F 89% 30.13 in 6.0 mi East 9.2 mph - 0.00 in Rain Light Rain
4:11 PM 78.8 °F - 75.2 °F 89% 30.13 in 5.0 mi East 9.2 mph - 0.00 in Rain Light Rain
4:58 PM 79.0 °F - 75.0 °F 88% 30.12 in 5.0 mi East 16.1 mph - 0.01 in Rain Light Rain
5:51 PM 82.4 °F 89.5 °F 75.2 °F 79% 30.12 in 7.0 mi East 12.7 mph - 0.00 in   Mostly Cloudy
5:58 PM 82.0 °F 89.4 °F 75.9 °F 82% 30.12 in 7.0 mi East 13.8 mph - 0.00 in   Mostly Cloudy
6:58 PM 80.1 °F 85.4 °F 75.9 °F 87% 30.12 in 6.0 mi East 11.5 mph - 0.01 in   Mostly Cloudy
7:02 PM 80.6 °F 86.2 °F 75.2 °F 84% 30.12 in 9.0 mi East 11.5 mph - N/A   Unknown
7:58 PM 79.0 °F - 75.0 °F 88% 30.13 in 7.0 mi East 11.5 mph - N/A   Mostly Cloudy
8:02 PM 78.8 °F - 75.2 °F 89% 30.13 in 10.0 mi East 12.7 mph - N/A   Unknown
8:09 PM 78.8 °F - 75.2 °F 89% 30.13 in 7.0 mi East 12.7 mph - N/A   Mostly Cloudy
8:54 PM 78.8 °F - 73.4 °F 83% 30.14 in 10.0 mi East 12.7 mph - N/A   Unknown
8:58 PM 79.0 °F - 73.9 °F 84% 30.14 in 10.0 mi East 11.5 mph - N/A   Unknown
9:58 PM 79.0 °F - 75.0 °F 88% 30.16 in 10.0 mi East 11.5 mph - N/A   Unknown
10:58 PM 79.0 °F - 75.0 °F 88% 30.18 in 10.0 mi East 9.2 mph - 0.00 in   Unknown
11:58 PM 78.1 °F - 75.0 °F 90% 30.19 in 10.0 mi East 6.9 mph - 0.02 in   Unknown